• In Uzbekistan
  • List of Countries
  • For 7 days
  • Water Temperature
  • Satellite Maps
  • Weather Map
  • Weather Widgets
  • user-avatar
    Login

    Hourly Weather Katerini

    Today, 18 February, Sunday

    Time Temperature Precipitation Wind Pressure Humidity
    00:00 +8°C° 0 mm 2 mps 763 mmHg 86%
    01:00 +9°C° 0 mm 1 mps 763 mmHg 88%
    02:00 +9°C° 0 mm 1 mps 763 mmHg 88%
    03:00 +9°C° 0 mm 1 mps 763 mmHg 89%
    04:00 +9°C° 0 mm 1 mps 762 mmHg 89%
    05:00 +8°C° 0 mm 1 mps 762 mmHg 89%
    06:00 +9°C° 0 mm 1 mps 762 mmHg 89%
    07:00 +9°C° 0 mm 1 mps 762 mmHg 89%
    08:00 +9°C° 0 mm 1 mps 762 mmHg 89%
    09:00 +10°C° 0 mm 1 mps 761 mmHg 85%
    10:00 +10°C° 0 mm 2 mps 761 mmHg 81%
    11:00 +12°C° 0 mm 2 mps 761 mmHg 77%
    12:00 +13°C° 0 mm 2 mps 760 mmHg 74%
    13:00 +14°C° 0 mm 2 mps 760 mmHg 72%
    14:00 +14°C° 0 mm 2 mps 759 mmHg 70%
    15:00 +14°C° 0 mm 2 mps 759 mmHg 72%
    16:00 +14°C° 0 mm 2 mps 759 mmHg 74%
    17:00 +14°C° 0 mm 2 mps 759 mmHg 76%
    18:00 +13°C° 0 mm 2 mps 759 mmHg 81%
    19:00 +12°C° 0 mm 1 mps 759 mmHg 85%
    20:00 +11°C° 0 mm 1 mps 759 mmHg 89%
    21:00 +11°C° 0 mm 1 mps 759 mmHg 90%
    22:00 +11°C° 0 mm 1 mps 759 mmHg 91%
    23:00 +11°C° 0 mm 1 mps 759 mmHg 92%

    Tomorrow, 19 February, Monday

    Time Temperature Precipitation Wind Pressure Humidity
    00:00 +11°C° 0 mm 1 mps 759 mmHg 92%
    01:00 +11°C° 0 mm 1 mps 759 mmHg 92%
    02:00 +11°C° 0 mm 1 mps 759 mmHg 93%
    03:00 +10°C° 0.2 mm 1 mps 758 mmHg 93%
    04:00 +10°C° 0.2 mm 1 mps 758 mmHg 93%
    05:00 +10°C° 0.2 mm 1 mps 758 mmHg 93%
    06:00 +10°C° 0.5 mm 1 mps 758 mmHg 93%
    07:00 +10°C° 0.5 mm 1 mps 758 mmHg 93%
    08:00 +10°C° 0.5 mm 1 mps 758 mmHg 92%
    09:00 +9°C° 0.6 mm 2 mps 758 mmHg 90%
    10:00 +10°C° 0.6 mm 2 mps 758 mmHg 88%
    11:00 +10°C° 0.6 mm 2 mps 758 mmHg 85%
    12:00 +10°C° 0.5 mm 2 mps 758 mmHg 84%
    13:00 +12°C° 0.5 mm 2 mps 758 mmHg 82%
    14:00 +12°C° 0.5 mm 2 mps 758 mmHg 80%
    15:00 +12°C° 0.4 mm 2 mps 757 mmHg 81%
    16:00 +12°C° 0.4 mm 2 mps 757 mmHg 82%
    17:00 +11°C° 0.4 mm 3 mps 757 mmHg 82%
    18:00 +10°C° 0.3 mm 3 mps 758 mmHg 84%
    19:00 +10°C° 0.3 mm 3 mps 758 mmHg 86%
    20:00 +9°C° 0.3 mm 3 mps 758 mmHg 88%
    21:00 +9°C° 0.5 mm 3 mps 758 mmHg 88%
    22:00 +9°C° 0.5 mm 3 mps 758 mmHg 88%
    23:00 +9°C° 0.5 mm 3 mps 758 mmHg 88%

    Day after tomorrow, 20 February, Tuesday

    Time Temperature Precipitation Wind Pressure Humidity
    00:00 +9°C° 0.6 mm 3 mps 758 mmHg 89%
    01:00 +9°C° 0.6 mm 3 mps 758 mmHg 89%
    02:00 +9°C° 0.6 mm 3 mps 758 mmHg 89%
    03:00 +9°C° 0.7 mm 3 mps 758 mmHg 89%
    04:00 +8°C° 0.7 mm 3 mps 758 mmHg 89%
    05:00 +8°C° 0.7 mm 3 mps 758 mmHg 89%
    06:00 +8°C° 0.6 mm 3 mps 758 mmHg 89%
    07:00 +8°C° 0.6 mm 3 mps 758 mmHg 89%
    08:00 +8°C° 0.6 mm 3 mps 758 mmHg 89%
    09:00 +8°C° 0.6 mm 3 mps 758 mmHg 87%
    10:00 +9°C° 0.6 mm 3 mps 758 mmHg 85%
    11:00 +8°C° 0.6 mm 4 mps 758 mmHg 83%
    12:00 +10°C° 0.5 mm 4 mps 757 mmHg 81%
    13:00 +10°C° 0.5 mm 4 mps 757 mmHg 80%
    14:00 +10°C° 0.5 mm 4 mps 756 mmHg 79%
    15:00 +10°C° 0.5 mm 4 mps 756 mmHg 81%
    16:00 +10°C° 0.5 mm 3 mps 756 mmHg 83%
    17:00 +10°C° 0.5 mm 3 mps 755 mmHg 85%
    18:00 +9°C° 1 mm 3 mps 755 mmHg 86%
    19:00 +9°C° 1 mm 3 mps 756 mmHg 88%
    20:00 +9°C° 1 mm 3 mps 756 mmHg 89%
    21:00 +9°C° 0.9 mm 3 mps 756 mmHg 90%
    22:00 +9°C° 0.9 mm 3 mps 756 mmHg 90%
    23:00 +9°C° 0.9 mm 3 mps 756 mmHg 91%

    21 February, Wednesday

    Time Temperature Precipitation Wind Pressure Humidity
    00:00 +9°C° 1 mm 3 mps 755 mmHg 91%
    01:00 +9°C° 1 mm 3 mps 755 mmHg 91%
    02:00 +9°C° 1 mm 3 mps 755 mmHg 91%
    03:00 +8°C° 1.2 mm 3 mps 755 mmHg 92%
    04:00 +8°C° 1.2 mm 3 mps 754 mmHg 92%
    05:00 +8°C° 1.2 mm 3 mps 754 mmHg 92%
    06:00 +8°C° 0.9 mm 3 mps 754 mmHg 92%
    07:00 +8°C° 0.9 mm 3 mps 754 mmHg 93%
    08:00 +8°C° 0.9 mm 3 mps 754 mmHg 93%
    09:00 +8°C° 0.8 mm 3 mps 754 mmHg 91%
    10:00 +8°C° 0.8 mm 3 mps 754 mmHg 90%
    11:00 +8°C° 0.8 mm 3 mps 754 mmHg 89%
    12:00 +9°C° 0.8 mm 3 mps 753 mmHg 89%
    13:00 +9°C° 0.8 mm 3 mps 753 mmHg 88%
    14:00 +9°C° 0.8 mm 3 mps 752 mmHg 87%
    15:00 +9°C° 0.6 mm 3 mps 752 mmHg 88%
    16:00 +9°C° 0.6 mm 2 mps 752 mmHg 89%
    17:00 +9°C° 0.6 mm 2 mps 752 mmHg 89%
    18:00 +9°C° 0.8 mm 2 mps 752 mmHg 90%
    19:00 +8°C° 0.8 mm 3 mps 752 mmHg 91%
    20:00 +8°C° 0.8 mm 3 mps 752 mmHg 92%
    21:00 +8°C° 1.3 mm 2 mps 752 mmHg 92%
    22:00 +8°C° 1.3 mm 2 mps 752 mmHg 93%
    23:00 +8°C° 1.3 mm 2 mps 752 mmHg 93%

    22 February, Thursday

    Time Temperature Precipitation Wind Pressure Humidity
    00:00 +8°C° 1.5 mm 3 mps 752 mmHg 94%
    01:00 +8°C° 1.5 mm 3 mps 752 mmHg 94%
    02:00 +8°C° 1.5 mm 3 mps 751 mmHg 95%
    03:00 +8°C° 1.5 mm 3 mps 751 mmHg 94%
    04:00 +8°C° 1.5 mm 3 mps 750 mmHg 94%
    05:00 +8°C° 1.5 mm 3 mps 750 mmHg 94%
    06:00 +8°C° 1.7 mm 3 mps 750 mmHg 94%
    07:00 +8°C° 1.7 mm 3 mps 750 mmHg 94%
    08:00 +9°C° 1.7 mm 3 mps 750 mmHg 94%
    09:00 +9°C° 2.6 mm 3 mps 750 mmHg 93%
    10:00 +9°C° 2.6 mm 3 mps 750 mmHg 93%
    11:00 +9°C° 2.6 mm 3 mps 750 mmHg 92%
    12:00 +9°C° 2.5 mm 3 mps 750 mmHg 92%
    13:00 +10°C° 2.5 mm 2 mps 749 mmHg 91%
    14:00 +10°C° 2.5 mm 2 mps 749 mmHg 90%
    15:00 +10°C° 0.6 mm 2 mps 749 mmHg 90%
    16:00 +10°C° 0.6 mm 2 mps 749 mmHg 90%
    17:00 +12°C° 0.6 mm 2 mps 749 mmHg 89%
    18:00 +10°C° 0.1 mm 2 mps 750 mmHg 91%
    19:00 +10°C° 0.1 mm 2 mps 750 mmHg 92%
    20:00 +9°C° 0.1 mm 2 mps 751 mmHg 94%
    21:00 +9°C° 0 mm 2 mps 751 mmHg 93%
    22:00 +10°C° 0 mm 1 mps 751 mmHg 93%
    23:00 +10°C° 0 mm 1 mps 751 mmHg 92%

    23 February, Friday

    Time Temperature Precipitation Wind Pressure Humidity
    00:00 +10°C° 0 mm 1 mps 751 mmHg 92%
    01:00 +10°C° 0 mm 1 mps 751 mmHg 92%
    02:00 +10°C° 0 mm 1 mps 751 mmHg 92%
    03:00 +9°C° 0 mm 1 mps 750 mmHg 93%
    04:00 +9°C° 0 mm 1 mps 750 mmHg 93%
    05:00 +9°C° 0 mm 1 mps 750 mmHg 94%
    06:00 +9°C° 0.1 mm 1 mps 750 mmHg 94%
    07:00 +10°C° 0.1 mm 1 mps 750 mmHg 94%
    08:00 +10°C° 0.1 mm 1 mps 750 mmHg 94%
    09:00 +11°C° 0 mm 1 mps 749 mmHg 90%
    10:00 +12°C° 0 mm 2 mps 749 mmHg 86%
    11:00 +13°C° 0 mm 2 mps 749 mmHg 83%
    12:00 +12°C° 0.4 mm 3 mps 748 mmHg 83%
    13:00 +13°C° 0.4 mm 4 mps 748 mmHg 83%
    14:00 +13°C° 0.4 mm 5 mps 747 mmHg 83%
    15:00 +13°C° 1 mm 5 mps 747 mmHg 83%
    16:00 +13°C° 1 mm 5 mps 746 mmHg 82%
    17:00 +13°C° 1 mm 5 mps 746 mmHg 82%
    18:00 +12°C° 0.3 mm 4 mps 746 mmHg 82%
    19:00 +11°C° 0.3 mm 4 mps 747 mmHg 82%
    20:00 +10°C° 0.3 mm 4 mps 747 mmHg 83%
    21:00 +10°C° 0 mm 4 mps 747 mmHg 82%
    22:00 +8°C° 0 mm 4 mps 748 mmHg 82%
    23:00 +8°C° 0 mm 4 mps 748 mmHg 82%
    Show more